SCP
0 0 1 2 2 2 2 2 2 1 1 1 1 1 1 1 1 1 1 0 0 0 0 0 0 0 0 0 0 0 0 0 0 0 0 0 0 0 0 0 0 0 0
0 0 1 2 2 2 2 2 2 1 1 1 1 0 0 0 1 1 0 0 0 0 0 0 0 0 0 0 0 0 0 0 0 0 0 0 0 0 0 0 0 0 0
0 0 1 1 2 2 2 2 2 2 1 1 0 0 0 0 0 1 0 0 0 0 0 0 0 0 0 0 0 0 0 0 0 0 0 0 0 0 0 0 0 0 0
0 0 0 1 1 1 1 2 2 2 1 1 0 0 0 0 0 0 0 0 0 0 0 0 0 0 0 0 0 0 0 0 0 0 0 0 0 0 0 0 0 0 0
0 0 0 1 1 1 1 1 2 1 1 0 0 0 0 0 0 0 0 0 0 0 0 0 0 0 0 0 0 0 0 0 0 0 0 0 0 0 0 0 0 0 0
0 0 0 0 0 1 1 1 1 1 1 0 0 0 0 0 0 0 0 0 0 0 0 0 0 0 0 0 0 0 0 0 0 0 0 0 0 0 0 0 0 0 0
0 0 0 0 0 0 0 1 1 1 0 0 0 0 0 0 0 0 0 0 0 0 0 0 0 0 0 0 0 0 0 0 0 0 0 0 0 0 0 0 0 0 0
0 0 0 0 0 0 0 0 0 0 0 0 0 0 0 0 0 0 0 0 0 0 0 0 0 0 0 0 0 0 0 0 0 0 0 0 0 0 0 0 0 0 0
0 0 0 0 0 0 0 0 0 0 0 0 0 0 0 0 0 0 0 0 0 0 0 0 0 0 0 0 0 0 0 0 0 0 0 0 0 0 0 0 0 0 0
0 0 0 0 0 0 0 0 0 0 0 0 0 0 0 0 0 0 0 0 0 0 0 0 0 0 0 0 0 0 0 0 0 0 0 0 0 0 0 0 0 0 0
0 0 0 0 0 0 0 0 0 0 0 0 0 0 0 0 0 0 0 0 0 0 0 0 0 0 0 0 0 0 0 0 0 0 0 0 0 0 0 0 0 0 0
0 0 0 0 0 0 0 0 0 0 0 0 0 0 0 0 0 0 0 0 0 0 0 0 0 0 0 0 0 0 0 0 0 0 0 0 0 0 0 0 0 0 0
0 0 0 0 0 0 0 0 0 0 0 0 0 0 0 0 0 0 0 0 0 0 0 0 0 0 0 0 0 0 0 0 0 0 0 0 0 0 0 0 0 0 0
0 0 0 0 0 0 0 0 0 0 0 0 0 0 0 0 0 0 0 0 0 0 0 0 0 0 0 0 0 0 0 0 0 0 0 0 0 0 0 0 0 0 0
0 0 0 0 0 0 0 0 0 0 0 0 0 0 0 0 0 0 0 0 0 0 0 0 0 0 0 0 0 0 0 0 0 0 0 0 0 0 0 0 0 0 0
0 0 0 0 0 0 0 0 0 0 0 0 0 0 0 0 0 0 0 0 0 0 0 0 0 0 0 0 0 0 0 0 0 0 0 0 0 0 0 0 0 0 0
0 0 0 0 0 0 0 0 0 0 0 0 0 0 0 0 0 0 0 0 0 0 0 0 0 0 0 0 0 0 0 0 0 0 0 0 0 0 0 0 0 0 0
0 0 0 0 0 0 0 0 0 0 0 0 0 0 0 0 0 0 0 0 0 0 0 0 0 0 0 0 0 0 0 0 0 0 0 0 0 0 0 0 0 0 0
0 0 0 0 0 0 0 0 0 0 0 0 0 0 0 0 0 0 0 0 0 0 0 0 0 0 0 0 0 0 0 0 0 0 0 0 0 0 0 0 0 0 0
0 0 0 0 0 0 0 0 0 0 0 0 0 0 0 0 0 0 0 0 0 0 0 0 0 0 0 0 0 0 0 0 0 0 0 0 0 0 0 0 0 0 0
0 0 0 0 0 0 0 0 0 0 0 0 0 0 0 0 0 0 0 0 0 0 0 0 0 0 0 0 0 0 0 0 0 0 0 0 0 0 0 0 0 0 0
0 0 0 0 0 0 0 0 0 0 0 0 0 0 0 0 0 0 0 0 0 0 0 0 0 0 0 0 0 0 0 0 0 0 0 0 0 0 0 0 0 0 0
0 0 0 0 0 0 0 0 0 0 0 0 0 0 0 0 0 0 0 0 0 0 0 0 0 0 0 0 0 0 0 0 0 0 0 0 0 0 0 0 0 0 0
0 0 0 0 0 0 0 0 0 0 0 0 0 0 0 0 0 0 0 0 0 0 0 0 0 0 0 0 0 0 0 0 0 0 0 0 0 0 0 0 0 0 0
0 0 0 0 0 0 0 0 0 0 0 0 0 0 0 0 0 0 0 0 0 0 0 0 0 0 0 0 0 0 0 0 0 0 0 0 0 0 0 0 0 0 0
0 0 0 0 0 0 0 0 0 0 0 0 0 0 0 0 0 0 0 0 0 0 0 0 0 0 0 0 0 0 0 0 0 0 0 0 0 0 0 0 0 0 0
Wind_Speed
3 3 4 5 5 5 5 6 5 4 4 3 3 3 2 2 2 2 3 3 3 3 3 3 3 3 3 3 3 3 3 3 2 2 2 2 2 3 2 2 2 3 3
2 3 4 5 5 6 5 5 5 5 4 3 2 2 3 2 2 2 3 3 3 2 3 3 2 2 3 3 3 3 2 2 2 2 2 1 2 2 2 2 2 3 2
6 5 5 5 5 6 6 5 5 5 4 4 3 3 3 3 2 2 2 2 3 3 3 3 3 2 2 2 2 3 3 1 1 2 2 2 1 2 2 2 1 2 2
5 5 5 5 5 5 5 4 5 4 4 4 5 5 4 3 2 2 2 2 3 3 2 2 2 2 2 2 2 2 2 2 1 1 2 1 1 1 2 2 2 2 2
6 6 6 6 5 4 4 4 4 4 4 4 5 5 3 2 2 2 3 2 2 2 2 2 2 2 2 2 2 2 2 1 1 0 0 1 1 0 1 2 3 3 2
5 4 4 4 3 3 4 4 4 3 4 4 4 4 4 4 4 3 2 2 1 1 1 1 1 1 1 1 1 1 2 1 1 1 0 0 0 0 0 1 2 3 3
4 4 5 4 4 4 4 4 5 4 4 4 4 4 4 5 5 4 3 2 1 1 0 0 1 1 1 1 1 1 1 1 1 1 0 0 1 1 1 1 2 3 3
3 4 4 5 5 5 5 5 5 5 4 4 3 3 3 3 3 3 3 3 2 1 1 1 1 0 1 1 1 1 1 1 1 1 1 1 1 1 1 1 1 2 3
2 3 3 4 4 4 4 5 5 5 5 4 4 3 3 3 3 3 2 2 1 1 1 1 1 0 0 1 1 0 1 1 1 1 1 1 1 1 1 1 2 2 3
1 1 2 3 3 3 3 3 4 4 4 4 4 3 3 3 3 3 3 2 1 1 1 1 0 0 0 0 1 1 1 1 1 1 1 1 1 1 1 2 2 2 3
1 1 1 1 1 2 2 2 3 3 3 4 3 3 3 2 2 2 2 2 2 2 1 1 1 1 0 1 1 1 1 2 2 2 2 3 2 2 2 2 2 2 3
0 1 1 1 1 1 2 2 3 3 3 3 3 3 3 3 3 2 2 2 2 2 2 2 1 1 1 1 2 2 2 2 3 3 3 3 3 3 3 2 3 3 3
2 2 1 1 0 0 1 1 2 2 2 3 3 3 3 3 3 3 2 2 2 2 2 2 2 2 2 2 2 2 3 3 3 3 4 4 4 4 3 3 3 3 4
1 1 1 1 1 1 1 1 1 2 2 3 3 3 3 3 3 3 3 2 2 2 2 2 2 2 3 3 3 2 2 3 3 4 4 4 5 5 5 4 4 4 4
1 1 1 1 1 1 1 1 1 1 2 3 3 3 2 2 2 3 3 2 2 3 2 2 2 2 3 3 3 3 3 3 4 4 4 5 6 7 7 6 5 5 5
2 2 2 2 2 2 2 1 2 2 2 3 2 2 2 2 3 3 3 2 2 2 2 2 3 3 3 5 6 5 4 4 4 5 5 5 6 8 10 11 11 9 7
3 3 3 3 3 3 2 2 2 1 2 2 2 2 2 3 3 2 2 3 3 2 2 3 3 4 5 7 7 7 5 5 5 5 5 5 6 8 5 8 10 10 12
3 4 4 4 3 2 2 2 1 2 2 2 2 2 2 2 2 2 3 3 2 3 3 3 4 4 5 7 8 8 5 5 6 6 6 7 7 6 6 6 7 7 8
4 4 4 4 3 2 2 1 1 2 2 2 3 3 3 3 3 3 3 3 2 3 3 4 4 4 5 7 8 7 4 5 6 6 6 7 7 10 11 8 7 8 7
3 3 3 3 2 2 1 1 2 2 3 3 3 3 3 3 3 4 3 2 3 3 3 4 4 4 5 7 8 8 4 5 5 5 6 9 10 11 12 7 6 8 8
4 3 3 2 2 1 1 2 2 3 3 2 2 2 2 3 3 3 3 2 3 3 3 4 4 5 6 7 9 9 4 5 5 5 5 5 10 12 12 10 7 10 9
4 3 2 2 1 1 1 2 2 2 2 2 2 2 2 2 2 2 2 3 3 3 3 3 4 4 5 6 7 10 9 8 6 6 5 6 11 12 12 10 10 12 10
3 2 1 2 2 1 1 2 3 2 1 1 2 2 2 2 2 3 3 2 2 3 3 3 3 3 3 4 8 10 10 10 7 6 9 10 11 11 9 10 11 9 6
3 2 1 1 2 2 1 2 2 1 1 2 2 2 2 2 2 2 3 3 3 3 3 3 4 4 4 4 4 4 5 8 7 6 8 10 10 8 8 8 7 5 5
2 1 1 2 2 2 2 2 1 1 1 2 2 2 2 2 2 2 2 3 4 4 4 4 4 4 4 6 8 6 5 4 5 5 4 4 4 4 4 4 4 4 5
2 2 2 2 2 2 2 2 1 1 2 2 1 1 1 1 1 1 2 3 4 5 7 7 7 6 8 10 10 10 10 10 8 5 4 4 4 5 5 5 5 4 5
Wind_Direction
199 155 157 154 145 142 147 149 141 137 132 134 137 134 134 117 97 91 82 79 72 72 79 80 74 74 79 79 85 88 76 51 52 66 36 15 26 42 37 30 36 18 8
162 158 158 155 154 155 156 152 149 147 148 149 138 135 126 111 104 92 84 77 75 75 82 85 86 79 83 79 79 84 85 56 34 84 94 27 356 360 6 9 20 14 7
186 177 172 172 164 163 167 163 158 153 148 133 119 111 92 80 76 75 81 70 78 71 73 83 90 85 94 100 90 87 93 108 17 42 104 128 211 304 319 330 345 356 357
187 174 174 172 175 174 165 155 156 151 148 144 144 143 143 140 153 142 116 88 81 77 69 79 91 94 91 102 107 82 84 113 104 10 28 74 157 168 296 306 318 322 326
185 180 180 178 173 161 156 154 150 151 151 152 150 152 138 125 113 115 112 101 84 78 73 77 81 90 85 98 102 82 83 100 129 120 22 41 24 84 182 277 305 317 303
188 181 167 147 143 144 146 146 145 150 153 151 151 155 148 138 131 136 143 137 106 84 66 72 77 86 94 110 116 112 106 108 119 95 84 139 172 245 242 262 297 299 296
182 171 163 159 155 154 157 156 155 158 161 156 160 163 159 156 158 163 165 157 147 143 167 95 108 108 103 108 102 115 145 146 150 175 227 244 242 225 240 256 285 292 294
175 174 175 168 165 163 164 165 170 168 167 167 169 161 158 161 161 164 164 174 181 181 176 163 128 111 122 106 110 129 194 176 184 241 236 265 274 253 241 227 257 297 291
176 176 168 164 165 166 172 176 176 174 175 175 165 160 163 166 164 159 155 164 164 160 152 149 157 180 157 168 164 199 230 209 218 227 235 256 270 266 257 236 217 222 268
142 153 163 167 166 168 167 167 172 176 174 169 172 174 174 176 164 154 160 160 156 140 151 149 181 212 268 250 203 227 238 232 247 236 230 256 264 263 260 246 248 236 242
190 176 170 158 150 140 146 159 164 160 163 170 172 168 169 164 158 166 175 171 166 163 181 190 216 239 269 287 254 250 239 236 251 252 242 253 254 256 257 251 252 252 248
37 119 132 118 124 145 160 172 170 168 179 175 168 170 165 156 165 177 184 177 181 186 195 201 216 239 258 252 242 256 264 247 246 250 247 256 259 256 251 245 251 252 248
33 48 61 72 105 193 198 199 188 182 176 167 166 167 169 172 180 185 183 187 193 202 204 206 218 235 249 253 253 247 256 259 258 253 247 250 247 254 255 253 257 261 265
25 40 31 4 331 286 266 252 223 194 174 165 170 182 189 191 192 187 183 194 198 204 211 222 229 239 251 255 256 259 261 260 264 263 258 254 246 249 247 252 252 257 262
358 355 328 302 293 290 283 275 254 221 187 176 184 200 197 188 188 191 194 198 207 219 222 232 243 246 252 249 249 251 254 254 260 262 260 261 260 258 257 258 250 248 254
300 303 312 306 283 269 267 265 259 240 195 187 197 195 186 186 193 199 198 200 209 217 220 231 237 244 256 261 262 263 256 255 255 261 264 264 261 260 265 267 265 256 252
276 279 280 277 268 262 256 248 248 235 194 196 202 195 190 197 202 205 204 211 217 222 229 236 236 245 252 257 261 265 265 256 254 255 258 264 264 269 263 268 273 269 263
274 281 284 283 277 264 261 245 224 200 194 196 204 208 202 208 208 208 216 223 225 226 233 243 242 248 255 262 265 268 264 257 255 253 252 254 260 261 263 264 266 265 265
270 271 272 274 276 268 249 205 204 197 197 211 215 213 209 212 217 221 225 230 231 243 243 248 244 247 260 262 266 268 256 255 256 254 253 252 254 259 265 265 265 271 272
281 282 286 287 270 269 225 190 213 205 220 229 230 220 213 217 227 232 235 239 238 247 251 260 255 251 256 259 265 266 253 255 261 262 260 258 260 263 266 260 256 264 270
293 289 278 267 259 251 193 211 222 230 238 240 237 231 225 227 233 237 239 229 243 250 251 260 265 259 258 262 264 267 260 251 260 265 264 261 266 268 270 269 260 264 274
308 302 287 286 284 235 184 211 244 246 236 228 229 237 236 236 236 225 236 235 230 238 248 256 268 264 263 264 265 268 269 267 261 263 265 263 268 271 272 271 268 274 279
301 303 286 299 304 264 198 222 262 248 227 228 230 236 244 238 230 222 226 230 227 230 245 249 261 269 270 265 270 274 275 275 273 268 269 273 275 276 273 271 273 274 268
296 301 304 299 299 290 274 250 258 243 203 227 239 233 227 235 236 235 228 225 227 232 241 249 259 267 272 272 268 266 274 274 274 271 272 276 277 277 276 275 269 261 257
309 305 273 273 288 304 301 284 260 213 204 223 240 242 238 231 245 253 246 247 244 239 246 250 251 258 266 268 275 279 276 269 265 269 264 261 264 265 267 268 265 261 261
309 311 304 289 289 300 303 298 275 215 198 220 234 232 232 237 238 251 289 290 275 274 273 270 269 268 269 276 278 280 284 285 284 281 263 259 259 260 263 267 270 268 263